Location: Cedarbrook
(36.3103°N, 86.6422°W)
Time: 08:22:14
(UTC+00:00)

Cosmos 1825 - Pass Details

Date: 29 October 2020
Orbit: 501 x 508 km, 82.5° (Epoch: 04 December)

Event Time Altitude Azimuth Distance (km) Brightness Sun altitude
Rises 23:32:22 0° 16° (NNE) 2,616 5.5 -8.6°
Reaches altitude 10° 23:35:38 10° 47° (NE) 1,723 4.3 -9.2°
Enters shadow 23:36:53 12° 67° (ENE) 1,579 4.0 -9.5°
